Year,Month,Day,Hour,Minute,Value (Times are PST for temperature in C)
2017,06,25,00,00,20.10
2017,06,25,00,01,20.10
2017,06,25,00,02,20.20
2017,06,25,00,03,20.20
2017,06,25,00,04,20.10
2017,06,25,00,05,20.10
2017,06,25,00,06,20.00
2017,06,25,00,07,20.00
2017,06,25,00,08,20.00
2017,06,25,00,09,19.90
2017,06,25,00,10,19.90
2017,06,25,00,11,19.80
2017,06,25,00,12,19.80
2017,06,25,00,13,19.70
2017,06,25,00,14,19.70
2017,06,25,00,15,19.60
2017,06,25,00,16,19.60
2017,06,25,00,17,19.50
2017,06,25,00,18,19.50
2017,06,25,00,19,19.40
2017,06,25,00,20,19.40
2017,06,25,00,21,19.40
2017,06,25,00,22,19.40
2017,06,25,00,23,19.40
2017,06,25,00,24,19.30
2017,06,25,00,25,19.30
2017,06,25,00,26,19.30
2017,06,25,00,27,19.20
2017,06,25,00,28,19.20
2017,06,25,00,29,19.20
2017,06,25,00,30,19.10
2017,06,25,00,31,19.10
2017,06,25,00,32,19.10
2017,06,25,00,33,19.00
2017,06,25,00,34,19.00
2017,06,25,00,35,18.90
2017,06,25,00,36,18.90
2017,06,25,00,37,18.90
2017,06,25,00,38,18.90
2017,06,25,00,39,18.90
2017,06,25,00,40,18.90
2017,06,25,00,41,18.90
2017,06,25,00,42,18.90
2017,06,25,00,43,18.90
2017,06,25,00,44,18.80
2017,06,25,00,45,18.80
2017,06,25,00,46,18.70
2017,06,25,00,47,18.70
2017,06,25,00,48,18.70
2017,06,25,00,49,18.70
2017,06,25,00,50,18.70
2017,06,25,00,51,18.70
2017,06,25,00,52,18.60
2017,06,25,00,53,18.60
2017,06,25,00,54,18.50
2017,06,25,00,55,18.50
2017,06,25,00,56,18.40
2017,06,25,00,57,18.30
2017,06,25,00,58,18.30
2017,06,25,00,59,18.30
2017,06,25,01,00,18.30
2017,06,25,01,01,18.20
2017,06,25,01,02,18.20
2017,06,25,01,03,18.20
2017,06,25,01,04,18.10
2017,06,25,01,05,18.10
2017,06,25,01,06,18.10
2017,06,25,01,07,18.00
2017,06,25,01,08,18.00
2017,06,25,01,09,17.90
2017,06,25,01,10,17.90
2017,06,25,01,11,17.80
2017,06,25,01,12,17.80
2017,06,25,01,13,17.80
2017,06,25,01,14,17.70
2017,06,25,01,15,17.70
2017,06,25,01,16,17.60
2017,06,25,01,17,17.60
2017,06,25,01,18,17.50
2017,06,25,01,19,17.50
2017,06,25,01,20,17.40
2017,06,25,01,21,17.40
2017,06,25,01,22,17.40
2017,06,25,01,23,17.30
2017,06,25,01,24,17.30
2017,06,25,01,25,17.30
2017,06,25,01,26,17.30
2017,06,25,01,27,17.20
2017,06,25,01,28,17.20
2017,06,25,01,29,17.20
2017,06,25,01,30,17.20
2017,06,25,01,31,17.20
2017,06,25,01,32,17.20
2017,06,25,01,33,17.20
2017,06,25,01,34,17.10
2017,06,25,01,35,17.20
2017,06,25,01,36,17.20
2017,06,25,01,37,17.20
2017,06,25,01,38,17.20
2017,06,25,01,39,17.20
2017,06,25,01,40,17.20
2017,06,25,01,41,17.20
2017,06,25,01,42,17.20
2017,06,25,01,43,17.20
2017,06,25,01,44,17.30
2017,06,25,01,45,17.30
2017,06,25,01,46,17.30
2017,06,25,01,47,17.40
2017,06,25,01,48,17.40
2017,06,25,01,49,17.50
2017,06,25,01,50,17.60
2017,06,25,01,51,17.60
2017,06,25,01,52,17.70
2017,06,25,01,53,17.70
2017,06,25,01,54,17.70
2017,06,25,01,55,17.80
2017,06,25,01,56,17.80
2017,06,25,01,57,17.80
2017,06,25,01,58,17.80
2017,06,25,01,59,17.80
2017,06,25,02,00,17.80
2017,06,25,02,01,17.80
2017,06,25,02,02,17.80
2017,06,25,02,03,17.70
2017,06,25,02,04,17.70
2017,06,25,02,05,17.60
2017,06,25,02,06,17.60
2017,06,25,02,07,17.50
2017,06,25,02,08,17.50
2017,06,25,02,09,17.40
2017,06,25,02,10,17.40
2017,06,25,02,11,17.40
2017,06,25,02,12,17.30
2017,06,25,02,13,17.30
2017,06,25,02,14,17.30
2017,06,25,02,15,17.30
2017,06,25,02,16,17.30
2017,06,25,02,17,17.30
2017,06,25,02,18,17.30
2017,06,25,02,19,17.20
2017,06,25,02,20,17.20
2017,06,25,02,21,17.10
2017,06,25,02,22,17.10
2017,06,25,02,23,17.10
2017,06,25,02,24,17.00
2017,06,25,02,25,17.00
2017,06,25,02,26,17.00
2017,06,25,02,27,16.90
2017,06,25,02,28,16.90
2017,06,25,02,29,16.90
2017,06,25,02,30,16.90
2017,06,25,02,31,16.80
2017,06,25,02,32,16.80
2017,06,25,02,33,16.90
2017,06,25,02,34,16.90
2017,06,25,02,35,16.90
2017,06,25,02,36,16.90
2017,06,25,02,37,16.90
2017,06,25,02,38,16.90
2017,06,25,02,39,16.90
2017,06,25,02,40,16.90
2017,06,25,02,41,16.90
2017,06,25,02,42,16.90
2017,06,25,02,43,16.90
2017,06,25,02,44,16.90
2017,06,25,02,45,16.90
2017,06,25,02,46,16.90
2017,06,25,02,47,16.90
2017,06,25,02,48,16.80
2017,06,25,02,49,16.90
2017,06,25,02,50,16.90
2017,06,25,02,51,16.90
2017,06,25,02,52,16.90
2017,06,25,02,53,16.90
2017,06,25,02,54,17.00
2017,06,25,02,55,17.00
2017,06,25,02,56,17.00
2017,06,25,02,57,17.10
2017,06,25,02,58,17.10
2017,06,25,02,59,17.10
2017,06,25,03,00,17.00
2017,06,25,03,01,16.90
2017,06,25,03,02,16.80
2017,06,25,03,03,16.70
2017,06,25,03,04,16.60
2017,06,25,03,05,16.50
2017,06,25,03,06,16.40
2017,06,25,03,07,16.30
2017,06,25,03,08,16.30
2017,06,25,03,09,16.20
2017,06,25,03,10,16.20
2017,06,25,03,11,16.10
2017,06,25,03,12,16.00
2017,06,25,03,13,16.00
2017,06,25,03,14,15.90
2017,06,25,03,15,15.90
2017,06,25,03,16,15.80
2017,06,25,03,17,15.80
2017,06,25,03,18,15.70
2017,06,25,03,19,15.70
2017,06,25,03,20,15.60
2017,06,25,03,21,15.60
2017,06,25,03,22,15.60
2017,06,25,03,23,15.50
2017,06,25,03,24,15.50
2017,06,25,03,25,15.50
2017,06,25,03,26,15.50
2017,06,25,03,27,15.50
2017,06,25,03,28,15.50
2017,06,25,03,29,15.50
2017,06,25,03,30,15.40
2017,06,25,03,31,15.40
2017,06,25,03,32,15.40
2017,06,25,03,33,15.40
2017,06,25,03,34,15.40
2017,06,25,03,35,15.50
2017,06,25,03,36,15.50
2017,06,25,03,37,15.50
2017,06,25,03,38,15.50
2017,06,25,03,39,15.50
2017,06,25,03,40,15.50
2017,06,25,03,41,15.50
2017,06,25,03,42,15.40
2017,06,25,03,43,15.40
2017,06,25,03,44,15.40
2017,06,25,03,45,15.40
2017,06,25,03,46,15.40
2017,06,25,03,47,15.30
2017,06,25,03,48,15.30
2017,06,25,03,49,15.30
2017,06,25,03,50,15.30
2017,06,25,03,51,15.30
2017,06,25,03,52,15.30
2017,06,25,03,53,15.30
2017,06,25,03,54,15.30
2017,06,25,03,55,15.30
2017,06,25,03,56,15.30
2017,06,25,03,57,15.20
2017,06,25,03,58,15.20
2017,06,25,03,59,15.20
2017,06,25,04,00,15.20
2017,06,25,04,01,15.20
2017,06,25,04,02,15.20
2017,06,25,04,03,15.20
2017,06,25,04,04,15.10
2017,06,25,04,05,15.10
2017,06,25,04,06,15.10
2017,06,25,04,07,15.10
2017,06,25,04,08,15.10
2017,06,25,04,09,15.10
2017,06,25,04,10,15.10
2017,06,25,04,11,15.10
2017,06,25,04,12,15.20
2017,06,25,04,13,15.20
2017,06,25,04,14,15.20
2017,06,25,04,15,15.30
2017,06,25,04,16,15.30
2017,06,25,04,17,15.30
2017,06,25,04,18,15.30
2017,06,25,04,19,15.30
2017,06,25,04,20,15.30
2017,06,25,04,21,15.30
2017,06,25,04,22,15.30
2017,06,25,04,23,15.20
2017,06,25,04,24,15.20
2017,06,25,04,25,15.10
2017,06,25,04,26,15.10
2017,06,25,04,27,15.00
2017,06,25,04,28,15.00
2017,06,25,04,29,14.90
2017,06,25,04,30,14.90
2017,06,25,04,31,14.80
2017,06,25,04,32,14.80
2017,06,25,04,33,14.80
2017,06,25,04,34,14.70
2017,06,25,04,35,14.70
2017,06,25,04,36,14.70
2017,06,25,04,37,14.70
2017,06,25,04,38,14.70
2017,06,25,04,39,14.70
2017,06,25,04,40,14.70
2017,06,25,04,41,14.70
2017,06,25,04,42,14.70
2017,06,25,04,43,14.70
2017,06,25,04,44,14.80
2017,06,25,04,45,14.80
2017,06,25,04,46,14.80
2017,06,25,04,47,14.80
2017,06,25,04,48,15.00
2017,06,25,04,49,15.10
2017,06,25,04,50,15.20
2017,06,25,04,51,15.30
2017,06,25,04,52,15.40
2017,06,25,04,53,15.50
2017,06,25,04,54,15.60
2017,06,25,04,55,15.70
2017,06,25,04,56,15.70
2017,06,25,04,57,15.60
2017,06,25,04,58,15.60
2017,06,25,04,59,15.50
2017,06,25,05,00,15.50
2017,06,25,05,01,15.40
2017,06,25,05,02,15.40
2017,06,25,05,03,15.40
2017,06,25,05,04,15.30
2017,06,25,05,05,15.30
2017,06,25,05,06,15.30
2017,06,25,05,07,15.20
2017,06,25,05,08,15.20
2017,06,25,05,09,15.10
2017,06,25,05,10,15.10
2017,06,25,05,11,15.00
2017,06,25,05,12,14.90
2017,06,25,05,13,14.80
2017,06,25,05,14,14.80
2017,06,25,05,15,14.70
2017,06,25,05,16,14.60
2017,06,25,05,17,14.50
2017,06,25,05,18,14.40
2017,06,25,05,19,14.30
2017,06,25,05,20,14.30
2017,06,25,05,21,14.30
2017,06,25,05,22,14.20
2017,06,25,05,23,14.20
2017,06,25,05,24,14.20
2017,06,25,05,25,14.20
2017,06,25,05,26,14.20
2017,06,25,05,27,14.20
2017,06,25,05,28,14.10
2017,06,25,05,29,14.10
2017,06,25,05,30,14.10
2017,06,25,05,31,14.10
2017,06,25,05,32,14.10
2017,06,25,05,33,14.10
2017,06,25,05,34,14.10
2017,06,25,05,35,14.10
2017,06,25,05,36,14.10
2017,06,25,05,37,14.10
2017,06,25,05,38,14.10
2017,06,25,05,39,14.10
2017,06,25,05,40,14.20
2017,06,25,05,41,14.20
2017,06,25,05,42,14.20
2017,06,25,05,43,14.20
2017,06,25,05,44,14.20
2017,06,25,05,45,14.30
2017,06,25,05,46,14.30
2017,06,25,05,47,14.30
2017,06,25,05,48,14.30
2017,06,25,05,49,14.30
2017,06,25,05,50,14.30
2017,06,25,05,51,14.30
2017,06,25,05,52,14.30
2017,06,25,05,53,14.30
2017,06,25,05,54,14.30
2017,06,25,05,55,14.40
2017,06,25,05,56,14.40
2017,06,25,05,57,14.40
2017,06,25,05,58,14.50
2017,06,25,05,59,14.50
2017,06,25,06,00,14.60
2017,06,25,06,01,14.60
2017,06,25,06,02,14.60
2017,06,25,06,03,14.70
2017,06,25,06,04,14.70
2017,06,25,06,05,14.70
2017,06,25,06,06,14.70
2017,06,25,06,07,14.80
2017,06,25,06,08,14.80
2017,06,25,06,09,14.80
2017,06,25,06,10,14.90
2017,06,25,06,11,14.90
2017,06,25,06,12,15.00
2017,06,25,06,13,15.00
2017,06,25,06,14,15.10
2017,06,25,06,15,15.20
2017,06,25,06,16,15.30
2017,06,25,06,17,15.30
2017,06,25,06,18,15.40
2017,06,25,06,19,15.50
2017,06,25,06,20,15.50
2017,06,25,06,21,15.60
2017,06,25,06,22,15.70
2017,06,25,06,23,15.90
2017,06,25,06,24,16.00
2017,06,25,06,25,16.10
2017,06,25,06,26,16.20
2017,06,25,06,27,16.40
2017,06,25,06,28,16.50
2017,06,25,06,29,16.60
2017,06,25,06,30,16.60
2017,06,25,06,31,16.60
2017,06,25,06,32,16.50
2017,06,25,06,33,16.50
2017,06,25,06,34,16.40
2017,06,25,06,35,16.30
2017,06,25,06,36,16.30
2017,06,25,06,37,16.30
2017,06,25,06,38,16.20
2017,06,25,06,39,16.20
2017,06,25,06,40,16.30
2017,06,25,06,41,16.30
2017,06,25,06,42,16.30
2017,06,25,06,43,16.30
2017,06,25,06,44,16.30
2017,06,25,06,45,16.40
2017,06,25,06,46,16.40
2017,06,25,06,47,16.40
2017,06,25,06,48,16.40
2017,06,25,06,49,16.40
2017,06,25,06,50,16.40
2017,06,25,06,51,16.40
2017,06,25,06,52,16.40
2017,06,25,06,53,16.40
2017,06,25,06,54,16.50
2017,06,25,06,55,16.50
2017,06,25,06,56,16.50
2017,06,25,06,57,16.50
2017,06,25,06,58,16.60
2017,06,25,06,59,16.60
2017,06,25,07,00,16.70
2017,06,25,07,01,16.80
2017,06,25,07,02,16.80
2017,06,25,07,03,16.90
2017,06,25,07,04,17.00
2017,06,25,07,05,17.10
2017,06,25,07,06,17.20
2017,06,25,07,07,17.30
2017,06,25,07,08,17.40
2017,06,25,07,09,17.50
2017,06,25,07,10,17.70
2017,06,25,07,11,17.80
2017,06,25,07,12,17.90
2017,06,25,07,13,18.10
2017,06,25,07,14,18.20
2017,06,25,07,15,18.30
2017,06,25,07,16,18.50
2017,06,25,07,17,18.60
2017,06,25,07,18,18.80
2017,06,25,07,19,19.00
2017,06,25,07,20,19.10
2017,06,25,07,21,19.30
2017,06,25,07,22,19.40
2017,06,25,07,23,19.60
2017,06,25,07,24,19.70
2017,06,25,07,25,19.90
2017,06,25,07,26,20.00
2017,06,25,07,27,20.10
2017,06,25,07,28,20.30
2017,06,25,07,29,20.40
2017,06,25,07,30,20.60
2017,06,25,07,31,20.70
2017,06,25,07,32,20.70
2017,06,25,07,33,20.90
2017,06,25,07,34,21.00
2017,06,25,07,35,21.10
2017,06,25,07,36,21.20
2017,06,25,07,37,21.20
2017,06,25,07,38,21.30
2017,06,25,07,39,21.30
2017,06,25,07,40,21.30
2017,06,25,07,41,21.40
2017,06,25,07,42,21.40
2017,06,25,07,43,21.40
2017,06,25,07,44,21.40
2017,06,25,07,45,21.50
2017,06,25,07,46,21.60
2017,06,25,07,47,21.60
2017,06,25,07,48,21.60
2017,06,25,07,49,21.50
2017,06,25,07,50,21.50
2017,06,25,07,51,21.50
2017,06,25,07,52,21.50
2017,06,25,07,53,21.50
2017,06,25,07,54,21.40
2017,06,25,07,55,21.50
2017,06,25,07,56,21.50
2017,06,25,07,57,21.50
2017,06,25,07,58,21.50
2017,06,25,07,59,21.50
2017,06,25,08,00,21.50
2017,06,25,08,01,21.50
2017,06,25,08,02,21.40
2017,06,25,08,03,21.50
2017,06,25,08,04,21.50
2017,06,25,08,05,21.50
2017,06,25,08,06,21.60
2017,06,25,08,07,21.70
2017,06,25,08,08,21.80
2017,06,25,08,09,21.90
2017,06,25,08,10,22.00
2017,06,25,08,11,22.20
2017,06,25,08,12,22.30
2017,06,25,08,13,22.40
2017,06,25,08,14,22.50
2017,06,25,08,15,22.60
2017,06,25,08,16,22.70
2017,06,25,08,17,22.80
2017,06,25,08,18,22.90
2017,06,25,08,19,22.90
2017,06,25,08,20,23.00
2017,06,25,08,21,23.10
2017,06,25,08,22,23.10
2017,06,25,08,23,23.20
2017,06,25,08,24,23.20
2017,06,25,08,25,23.20
2017,06,25,08,26,23.30
2017,06,25,08,27,23.30
2017,06,25,08,28,23.40
2017,06,25,08,29,23.40
2017,06,25,08,30,23.40
2017,06,25,08,31,23.50
2017,06,25,08,32,23.50
2017,06,25,08,33,23.50
2017,06,25,08,34,23.50
2017,06,25,08,35,23.60
2017,06,25,08,36,23.60
2017,06,25,08,37,23.60
2017,06,25,08,38,23.60
2017,06,25,08,39,23.60
2017,06,25,08,40,23.70
2017,06,25,08,41,23.70
2017,06,25,08,42,23.80
2017,06,25,08,43,23.90
2017,06,25,08,44,24.00
2017,06,25,08,45,24.00
2017,06,25,08,46,24.10
2017,06,25,08,47,24.20
2017,06,25,08,48,24.30
2017,06,25,08,49,24.30
2017,06,25,08,50,24.30
2017,06,25,08,51,24.30
2017,06,25,08,52,24.30
2017,06,25,08,53,24.40
2017,06,25,08,54,24.40
2017,06,25,08,55,24.40
2017,06,25,08,56,24.50
2017,06,25,08,57,24.50
2017,06,25,08,58,24.60
2017,06,25,08,59,24.60
2017,06,25,09,00,24.70
2017,06,25,09,01,24.70
2017,06,25,09,02,24.80
2017,06,25,09,03,24.80
2017,06,25,09,04,24.90
2017,06,25,09,05,24.90
2017,06,25,09,06,25.00
2017,06,25,09,07,25.00
2017,06,25,09,08,25.00
2017,06,25,09,09,25.00
2017,06,25,09,10,25.10
2017,06,25,09,11,25.10
2017,06,25,09,12,25.10
2017,06,25,09,13,25.10
2017,06,25,09,14,25.10
2017,06,25,09,15,25.10
2017,06,25,09,16,25.10
2017,06,25,09,17,25.10
2017,06,25,09,18,25.10
2017,06,25,09,19,25.10
2017,06,25,09,20,25.10
2017,06,25,09,21,25.10
2017,06,25,09,22,25.00
2017,06,25,09,23,25.10
2017,06,25,09,24,25.10
2017,06,25,09,25,25.20
2017,06,25,09,26,25.20
2017,06,25,09,27,25.30
2017,06,25,09,28,25.30
2017,06,25,09,29,25.40
2017,06,25,09,30,25.40
2017,06,25,09,31,25.40
2017,06,25,09,32,25.40
2017,06,25,09,33,25.50
2017,06,25,09,34,25.60
2017,06,25,09,35,25.60
2017,06,25,09,36,25.60
2017,06,25,09,37,25.70
2017,06,25,09,38,25.70
2017,06,25,09,39,25.80
2017,06,25,09,40,25.80
2017,06,25,09,41,25.70
2017,06,25,09,42,25.70
2017,06,25,09,43,25.70
2017,06,25,09,44,25.60
2017,06,25,09,45,25.60
2017,06,25,09,46,25.60
2017,06,25,09,47,25.70
2017,06,25,09,48,25.60
2017,06,25,09,49,25.70
2017,06,25,09,50,25.70
2017,06,25,09,51,25.60
2017,06,25,09,52,25.60
2017,06,25,09,53,25.60
2017,06,25,09,54,25.60
2017,06,25,09,55,25.70
2017,06,25,09,56,25.70
2017,06,25,09,57,25.80
2017,06,25,09,58,25.90
2017,06,25,09,59,25.90
2017,06,25,10,00,25.90
2017,06,25,10,01,25.90
2017,06,25,10,02,26.00
2017,06,25,10,03,26.00
2017,06,25,10,04,26.00
2017,06,25,10,05,26.10
2017,06,25,10,06,26.10
2017,06,25,10,07,26.20
2017,06,25,10,08,26.30
2017,06,25,10,09,26.30
2017,06,25,10,10,26.40
2017,06,25,10,11,26.40
2017,06,25,10,12,26.40
2017,06,25,10,13,26.40
2017,06,25,10,14,26.50
2017,06,25,10,15,26.50
2017,06,25,10,16,26.50
2017,06,25,10,17,26.50
2017,06,25,10,18,26.50
2017,06,25,10,19,26.50
2017,06,25,10,20,26.40
2017,06,25,10,21,26.30
2017,06,25,10,22,26.30
2017,06,25,10,23,26.30
2017,06,25,10,24,26.30
2017,06,25,10,25,26.30
2017,06,25,10,26,26.20
2017,06,25,10,27,26.20
2017,06,25,10,28,26.20
2017,06,25,10,29,26.20
2017,06,25,10,30,26.20
2017,06,25,10,31,26.30
2017,06,25,10,32,26.30
2017,06,25,10,33,26.30
2017,06,25,10,34,26.40
2017,06,25,10,35,26.40
2017,06,25,10,36,26.40
2017,06,25,10,37,26.40
2017,06,25,10,38,26.30
2017,06,25,10,39,26.10
2017,06,25,10,40,26.00
2017,06,25,10,41,25.90
2017,06,25,10,42,25.90
2017,06,25,10,43,25.90
2017,06,25,10,44,26.00
2017,06,25,10,45,26.10
2017,06,25,10,46,26.20
2017,06,25,10,47,26.20
2017,06,25,10,48,26.20
2017,06,25,10,49,26.20
2017,06,25,10,50,26.30
2017,06,25,10,51,26.30
2017,06,25,10,52,26.40
2017,06,25,10,53,26.50
2017,06,25,10,54,26.60
2017,06,25,10,55,26.70
2017,06,25,10,56,26.80
2017,06,25,10,57,26.90
2017,06,25,10,58,27.00
2017,06,25,10,59,27.00
2017,06,25,11,00,27.00
2017,06,25,11,01,27.00
2017,06,25,11,02,27.00
2017,06,25,11,03,26.90
2017,06,25,11,04,26.90
2017,06,25,11,05,26.90
2017,06,25,11,06,26.90
2017,06,25,11,07,26.90
2017,06,25,11,08,26.90
2017,06,25,11,09,26.90
2017,06,25,11,10,26.90
2017,06,25,11,11,26.90
2017,06,25,11,12,26.80
2017,06,25,11,13,26.80
2017,06,25,11,14,26.80
2017,06,25,11,15,26.80
2017,06,25,11,16,26.80
2017,06,25,11,17,26.70
2017,06,25,11,18,26.60
2017,06,25,11,19,26.60
2017,06,25,11,20,26.70
2017,06,25,11,21,26.70
2017,06,25,11,22,26.80
2017,06,25,11,23,26.80
2017,06,25,11,24,26.80
2017,06,25,11,25,26.70
2017,06,25,11,26,26.50
2017,06,25,11,27,26.50
2017,06,25,11,28,26.40
2017,06,25,11,29,26.50
2017,06,25,11,30,26.60
2017,06,25,11,31,26.70
2017,06,25,11,32,26.70
2017,06,25,11,33,26.70
2017,06,25,11,34,26.70
2017,06,25,11,35,26.70
2017,06,25,11,36,26.80
2017,06,25,11,37,26.90
2017,06,25,11,38,27.00
2017,06,25,11,39,27.00
2017,06,25,11,40,27.10
2017,06,25,11,41,27.10
2017,06,25,11,42,27.00
2017,06,25,11,43,27.00
2017,06,25,11,44,26.90
2017,06,25,11,45,26.80
2017,06,25,11,46,26.70
2017,06,25,11,47,26.70
2017,06,25,11,48,26.80
2017,06,25,11,49,26.90
2017,06,25,11,50,26.90
2017,06,25,11,51,27.00
2017,06,25,11,52,27.10
2017,06,25,11,53,27.20
2017,06,25,11,54,27.20
2017,06,25,11,55,27.10
2017,06,25,11,56,27.10
2017,06,25,11,57,27.10
2017,06,25,11,58,27.00
2017,06,25,11,59,27.00
2017,06,25,12,00,27.00
2017,06,25,12,01,27.10
2017,06,25,12,02,27.10
2017,06,25,12,03,27.10
2017,06,25,12,04,27.10
2017,06,25,12,05,27.10
2017,06,25,12,06,27.20
2017,06,25,12,07,27.20
2017,06,25,12,08,27.30
2017,06,25,12,09,27.30
2017,06,25,12,10,27.40
2017,06,25,12,11,27.40
2017,06,25,12,12,27.50
2017,06,25,12,13,27.50
2017,06,25,12,14,27.50
2017,06,25,12,15,27.60
2017,06,25,12,16,27.70
2017,06,25,12,17,27.70
2017,06,25,12,18,27.70
2017,06,25,12,19,27.60
2017,06,25,12,20,27.60
2017,06,25,12,21,27.50
2017,06,25,12,22,27.50
2017,06,25,12,23,27.50
2017,06,25,12,24,27.60
2017,06,25,12,25,27.70
2017,06,25,12,26,27.70
2017,06,25,12,27,27.70
2017,06,25,12,28,27.60
2017,06,25,12,29,27.60
2017,06,25,12,30,27.60
2017,06,25,12,31,27.60
2017,06,25,12,32,27.60
2017,06,25,12,33,27.60
2017,06,25,12,34,27.60
2017,06,25,12,35,27.60
2017,06,25,12,36,27.70
2017,06,25,12,37,27.70
2017,06,25,12,38,27.80
2017,06,25,12,39,27.80
2017,06,25,12,40,27.80
2017,06,25,12,41,27.80
2017,06,25,12,42,27.80
2017,06,25,12,43,27.90
2017,06,25,12,44,27.80
2017,06,25,12,45,27.80
2017,06,25,12,46,27.80
2017,06,25,12,47,27.80
2017,06,25,12,48,27.90
2017,06,25,12,49,28.10
2017,06,25,12,50,28.30
2017,06,25,12,51,28.40
2017,06,25,12,52,28.50
2017,06,25,12,53,28.60
2017,06,25,12,54,28.70
2017,06,25,12,55,28.80
2017,06,25,12,56,28.80
2017,06,25,12,57,28.70
2017,06,25,12,58,28.70
2017,06,25,12,59,28.70
2017,06,25,13,00,28.80
2017,06,25,13,01,28.90
2017,06,25,13,02,28.90
2017,06,25,13,03,28.90
2017,06,25,13,04,28.90
2017,06,25,13,05,28.80
2017,06,25,13,06,28.80
2017,06,25,13,07,28.70
2017,06,25,13,08,28.70
2017,06,25,13,09,28.70
2017,06,25,13,10,28.60
2017,06,25,13,11,28.50
2017,06,25,13,12,28.50
2017,06,25,13,13,28.40
2017,06,25,13,14,28.40
2017,06,25,13,15,28.40
2017,06,25,13,16,28.40
2017,06,25,13,17,28.40
2017,06,25,13,18,28.40
2017,06,25,13,19,28.50
2017,06,25,13,20,28.50
2017,06,25,13,21,28.60
2017,06,25,13,22,28.70
2017,06,25,13,23,28.70
2017,06,25,13,24,28.70
2017,06,25,13,25,28.60
2017,06,25,13,26,28.60
2017,06,25,13,27,28.40
2017,06,25,13,28,28.40
2017,06,25,13,29,28.30
2017,06,25,13,30,28.30
2017,06,25,13,31,28.20
2017,06,25,13,32,28.10
2017,06,25,13,33,28.00
2017,06,25,13,34,27.90
2017,06,25,13,35,27.90
2017,06,25,13,36,27.90
2017,06,25,13,37,27.90
2017,06,25,13,38,27.90
2017,06,25,13,39,27.90
2017,06,25,13,40,27.80
2017,06,25,13,41,27.80
2017,06,25,13,42,27.80
2017,06,25,13,43,27.80
2017,06,25,13,44,27.80
2017,06,25,13,45,27.80
2017,06,25,13,46,27.90
2017,06,25,13,47,27.90
2017,06,25,13,48,28.00
2017,06,25,13,49,28.10
2017,06,25,13,50,28.20
2017,06,25,13,51,28.30
2017,06,25,13,52,28.40
2017,06,25,13,53,28.60
2017,06,25,13,54,28.70
2017,06,25,13,55,28.90
2017,06,25,13,56,29.10
2017,06,25,13,57,29.20
2017,06,25,13,58,29.30
2017,06,25,13,59,29.50
2017,06,25,14,00,29.60
2017,06,25,14,01,29.70
2017,06,25,14,02,29.80
2017,06,25,14,03,29.90
2017,06,25,14,04,30.00
2017,06,25,14,05,30.10
2017,06,25,14,06,30.20
2017,06,25,14,07,30.30
2017,06,25,14,08,30.40
2017,06,25,14,09,30.40
2017,06,25,14,10,30.40
2017,06,25,14,11,30.40
2017,06,25,14,12,30.50
2017,06,25,14,13,30.60
2017,06,25,14,14,30.60
2017,06,25,14,15,30.60
2017,06,25,14,16,30.50
2017,06,25,14,17,30.30
2017,06,25,14,18,30.00
2017,06,25,14,19,29.70
2017,06,25,14,20,29.30
2017,06,25,14,21,28.90
2017,06,25,14,22,28.40
2017,06,25,14,23,28.00
2017,06,25,14,24,27.80
2017,06,25,14,25,27.70
2017,06,25,14,26,27.50
2017,06,25,14,27,27.40
2017,06,25,14,28,27.40
2017,06,25,14,29,27.20
2017,06,25,14,30,26.80
2017,06,25,14,31,26.40
2017,06,25,14,32,26.00
2017,06,25,14,33,25.60
2017,06,25,14,34,25.40
2017,06,25,14,35,25.20
2017,06,25,14,36,25.00
2017,06,25,14,37,24.90
2017,06,25,14,38,24.80
2017,06,25,14,39,24.80
2017,06,25,14,40,24.80
2017,06,25,14,41,24.80
2017,06,25,14,42,24.80
2017,06,25,14,43,24.90
2017,06,25,14,44,25.10
2017,06,25,14,45,25.30
2017,06,25,14,46,25.60
2017,06,25,14,47,25.90
2017,06,25,14,48,25.90
2017,06,25,14,49,25.80
2017,06,25,14,50,25.60
2017,06,25,14,51,25.30
2017,06,25,14,52,25.00
2017,06,25,14,53,24.70
2017,06,25,14,54,24.40
2017,06,25,14,55,24.10
2017,06,25,14,56,23.90
2017,06,25,14,57,23.70
2017,06,25,14,58,23.60
2017,06,25,14,59,23.40
2017,06,25,15,00,23.30
2017,06,25,15,01,23.20
2017,06,25,15,02,23.10
2017,06,25,15,03,23.00
2017,06,25,15,04,22.90
2017,06,25,15,05,22.80
2017,06,25,15,06,22.70
2017,06,25,15,07,22.50
2017,06,25,15,08,22.40
2017,06,25,15,09,22.10
2017,06,25,15,10,21.90
2017,06,25,15,11,21.70
2017,06,25,15,12,21.60
2017,06,25,15,13,21.50
2017,06,25,15,14,21.40
2017,06,25,15,15,21.30
2017,06,25,15,16,21.20
2017,06,25,15,17,21.20
2017,06,25,15,18,21.30
2017,06,25,15,19,21.50
2017,06,25,15,20,21.70
2017,06,25,15,21,21.80
2017,06,25,15,22,22.00
2017,06,25,15,23,22.10
2017,06,25,15,24,22.30
2017,06,25,15,25,22.40
2017,06,25,15,26,22.50
2017,06,25,15,27,22.60
2017,06,25,15,28,22.70
2017,06,25,15,29,22.80
2017,06,25,15,30,23.00
2017,06,25,15,31,23.20
2017,06,25,15,32,23.40
2017,06,25,15,33,23.50
2017,06,25,15,34,23.60
2017,06,25,15,35,23.70
2017,06,25,15,36,23.70
2017,06,25,15,37,23.60
2017,06,25,15,38,23.50
2017,06,25,15,39,23.40
2017,06,25,15,40,23.40
2017,06,25,15,41,23.40
2017,06,25,15,42,23.30
2017,06,25,15,43,23.30
2017,06,25,15,44,23.30
2017,06,25,15,45,23.20
2017,06,25,15,46,23.20
2017,06,25,15,47,23.10
2017,06,25,15,48,23.10
2017,06,25,15,49,23.10
2017,06,25,15,50,23.10
2017,06,25,15,51,23.20
2017,06,25,15,52,23.20
2017,06,25,15,53,23.30
2017,06,25,15,54,23.40
2017,06,25,15,55,23.60
2017,06,25,15,56,23.70
2017,06,25,15,57,23.80
2017,06,25,15,58,23.90
2017,06,25,15,59,24.00
2017,06,25,16,00,24.10
2017,06,25,16,01,24.30
2017,06,25,16,02,24.40
2017,06,25,16,03,24.50
2017,06,25,16,04,24.60
2017,06,25,16,05,24.70
2017,06,25,16,06,24.80
2017,06,25,16,07,24.80
2017,06,25,16,08,25.00
2017,06,25,16,09,25.10
2017,06,25,16,10,25.20
2017,06,25,16,11,25.30
2017,06,25,16,12,25.40
2017,06,25,16,13,25.50
2017,06,25,16,14,25.70
2017,06,25,16,15,25.80
2017,06,25,16,16,25.80
2017,06,25,16,17,25.80
2017,06,25,16,18,25.70
2017,06,25,16,19,25.70
2017,06,25,16,20,25.60
2017,06,25,16,21,25.60
2017,06,25,16,22,25.60
2017,06,25,16,23,25.60
2017,06,25,16,24,25.60
2017,06,25,16,25,25.60
2017,06,25,16,26,25.50
2017,06,25,16,27,25.40
2017,06,25,16,28,25.30
2017,06,25,16,29,25.30
2017,06,25,16,30,25.20
2017,06,25,16,31,25.20
2017,06,25,16,32,25.30
2017,06,25,16,33,25.40
2017,06,25,16,34,25.50
2017,06,25,16,35,25.60
2017,06,25,16,36,25.70
2017,06,25,16,37,25.80
2017,06,25,16,38,25.90
2017,06,25,16,39,26.00
2017,06,25,16,40,26.10
2017,06,25,16,41,26.30
2017,06,25,16,42,26.40
2017,06,25,16,43,26.50
2017,06,25,16,44,26.60
2017,06,25,16,45,26.70
2017,06,25,16,46,26.80
2017,06,25,16,47,27.00
2017,06,25,16,48,27.10
2017,06,25,16,49,27.30
2017,06,25,16,50,27.40
2017,06,25,16,51,27.40
2017,06,25,16,52,27.40
2017,06,25,16,53,27.30
2017,06,25,16,54,27.30
2017,06,25,16,55,27.20
2017,06,25,16,56,26.80
2017,06,25,16,57,26.40
2017,06,25,16,58,26.10
2017,06,25,16,59,25.80
2017,06,25,17,00,25.50
2017,06,25,17,01,25.30
2017,06,25,17,02,25.10
2017,06,25,17,03,24.90
2017,06,25,17,04,24.70
2017,06,25,17,05,24.60
2017,06,25,17,06,24.40
2017,06,25,17,07,24.40
2017,06,25,17,08,24.40
2017,06,25,17,09,24.40
2017,06,25,17,10,24.40
2017,06,25,17,11,24.40
2017,06,25,17,12,24.40
2017,06,25,17,13,24.40
2017,06,25,17,14,24.50
2017,06,25,17,15,24.60
2017,06,25,17,16,24.70
2017,06,25,17,17,24.80
2017,06,25,17,18,24.90
2017,06,25,17,19,25.00